Clemson, SC

10:38 PM EDT on April 30, 2017 (GMT -0400)
Oconee County Regional

Weather History for KCEU - April, 2014

Change the Weather History Date:

Saturday, April 5, 2014

  Actual Average Record
Temperature  
Mean Temperature 64 °F -  
Max Temperature 73 °F 70 °F 90 °F (1934)
Min Temperature 54 °F 44 °F 29 °F (1944)
Degree Days  
Heating Degree Days 2    
Growing Degree Days 14 (Base 50)    
Moisture  
Dew Point 40 °F    
Average Humidity 46    
Maximum Humidity 77    
Minimum Humidity 22    
Precipitation  
Precipitation 0.00 in - - ()
Sea Level Pressure  
Sea Level Pressure 29.96 in    
Wind  
Wind Speed 7 mph (WSW)    
Max Wind Speed 10 mph    
Max Gust Speed -    
Visibility 10 miles    
Events      
Averages and records for this station are not official NWS values.
T = Trace of Precipitation, MM = Missing Value Source: NWS Daily Summary

Daily Weather History Graph

Daily Weather History Graph

Search for Another Location

Airport or City:

Trip Planner

Search our weather history database for the weather conditions in past years. The results will help you decide how hot, cold, wet, or windy it might be!

Date:

Astronomy

Apr. 05, 2014 Rise Set
Actual Time 7:13 AM EDT 7:55 PM EDT
Civil Twilight 6:47 AM EDT 8:21 PM EDT
Nautical Twilight 6:17 AM EDT 8:51 PM EDT
Astronomical Twilight 5:46 AM EDT 9:22 PM EDT
Moon 11:28 AM EDT (4/5) 12:56 AM EDT (4/5)
Length of Visible Light 13h 33m
Length of Day
12h 42m
Waxing Crescent, 34% of the Moon is Illuminated
Apr 5
Waxing Crescent
Apr 7
First Quarter
Apr 15
Full
Apr 22
Last Quarter
Apr 29
New

Hourly Weather History & Observations

Time (EDT) Temp. Dew Point Humidity Pressure Visibility Wind Dir Wind Speed Gust Speed Precip Events Conditions
12:54 AM 63.0 °F 53.1 °F 70% 29.91 in 10.0 mi WSW 10.4 mph - N/A   Clear
1:54 AM 61.0 °F 51.1 °F 70% 29.91 in 10.0 mi WSW 10.4 mph - N/A   Clear
2:54 AM 60.1 °F 51.1 °F 72% 29.91 in 10.0 mi WSW 9.2 mph - N/A   Clear
3:54 AM 59.0 °F 51.1 °F 75% 29.91 in 10.0 mi WSW 9.2 mph - N/A   Clear
4:54 AM 57.0 °F 50.0 °F 77% 29.91 in 10.0 mi West 10.4 mph - N/A   Clear
5:54 AM 55.0 °F 46.0 °F 72% 29.93 in 10.0 mi West 9.2 mph - N/A   Clear
6:54 AM 54.0 °F 43.0 °F 66% 29.94 in 10.0 mi West 8.1 mph - N/A   Clear
7:54 AM 55.0 °F 42.1 °F 62% 29.96 in 10.0 mi WNW 5.8 mph - N/A   Clear
8:54 AM 57.0 °F 43.0 °F 59% 29.97 in 10.0 mi West 4.6 mph - N/A   Clear
9:54 AM 60.1 °F 39.0 °F 46% 29.98 in 10.0 mi West 4.6 mph - N/A   Clear
10:54 AM 61.0 °F 37.9 °F 42% 30.00 in 10.0 mi Calm Calm - N/A   Clear
11:54 AM 66.0 °F 37.0 °F 34% 30.01 in 10.0 mi Variable 4.6 mph - N/A   Clear
12:54 PM 66.9 °F 35.1 °F 31% 30.00 in 10.0 mi ENE 6.9 mph - N/A   Clear
1:54 PM 69.1 °F 35.1 °F 29% 29.98 in 10.0 mi ESE 8.1 mph - N/A   Clear
2:54 PM 70.0 °F 35.1 °F 28% 29.97 in 10.0 mi Variable 6.9 mph - N/A   Clear
3:54 PM 71.1 °F 34.0 °F 26% 29.95 in 10.0 mi Variable 3.5 mph - N/A   Clear
4:54 PM 73.0 °F 32.0 °F 22% 29.94 in 10.0 mi Calm Calm - N/A   Clear
5:54 PM 72.0 °F 30.9 °F 22% 29.95 in 10.0 mi SW 3.5 mph - N/A   Clear
6:54 PM 70.0 °F 32.0 °F 25% 29.96 in 10.0 mi Calm Calm - N/A   Clear
7:54 PM 66.9 °F 33.1 °F 28% 29.96 in 10.0 mi Calm Calm - N/A   Clear
8:54 PM 64.9 °F 33.1 °F 31% 29.98 in 10.0 mi Calm Calm - N/A   Clear
9:54 PM 64.0 °F 34.0 °F 33% 30.01 in 10.0 mi SW 5.8 mph - N/A   Clear
10:54 PM 61.0 °F 35.1 °F 38% 30.01 in 10.0 mi Calm Calm - N/A   Clear
11:54 PM 57.9 °F 41.0 °F 53% 30.02 in 10.0 mi Calm Calm - N/A   Clear